Helicity
55 79 61 61 83 90 54 64 124 132 149 143 199 236 247 313 350 191 106 118 95 90 88 92 88 85 63 60 85 110 86 84 100 118 86 64 80 110 122 123 130 136 109
100 107 86 71 82 99 85 71 65 121 170 161 203 253 244 315 372 161 166 150 104 114 112 137 90 54 1 16 101 124 128 109 122 129 113 86 107 141 129 139 166 148 160
164 142 138 110 74 103 108 95 76 59 2 6 93 278 321 282 309 87 112 71 166 161 91 27 38 -29 68 55 121 146 153 150 138 166 156 107 79 104 119 123 155 151 196
142 168 158 147 104 80 101 113 94 95 56 11 -3 55 88 59 5 -79 -50 -45 -32 -12 -27 -4 34 40 110 108 114 148 173 199 192 192 155 183 173 159 105 104 111 153 141
191 189 195 178 120 102 87 107 122 84 75 64 65 48 66 28 -94 -156 -103 -114 -24 20 14 12 4 39 93 106 129 151 171 227 243 311 290 262 230 250 260 172 198 200 165
154 145 152 171 138 146 125 101 118 105 85 57 23 26 7 -37 -124 -168 -153 -171 -158 -129 -180 -124 15 29 76 124 150 173 198 216 245 253 267 295 250 267 313 321 272 258 165
156 164 208 205 201 180 158 143 128 93 75 76 66 48 28 1 -52 -113 -164 -191 -232 -260 -196 -92 -19 33 63 111 177 198 184 198 216 195 200 232 225 261 292 323 261 270 205
159 150 214 198 212 217 216 174 165 133 125 98 79 45 15 -16 -53 -93 -105 -112 -133 -132 -123 -143 -70 8 55 110 168 188 153 138 187 178 183 192 200 303 335 335 316 286 269
136 116 165 215 211 214 238 254 210 155 153 153 105 95 74 68 35 19 -1 -40 -43 -39 -21 15 37 71 92 133 154 178 116 77 103 156 113 178 228 306 333 328 306 338 311
33 70 138 178 185 207 218 237 249 255 209 167 160 143 136 113 88 79 59 36 36 21 46 69 88 113 120 92 103 154 179 193 19 84 143 210 279 329 323 340 300 334 303
40 69 90 136 182 155 212 248 250 275 271 264 255 225 211 214 212 178 158 147 82 150 108 111 148 105 119 175 213 166 223 56 143 179 169 195 315 349 371 397 353 387 331
60 81 104 132 149 178 195 226 260 276 283 319 324 290 247 214 227 214 214 212 79 232 158 192 102 73 212 244 273 141 53 82 126 144 176 280 315 333 356 323 351 296 277
50 91 106 127 151 199 233 270 280 274 319 341 366 371 386 379 347 333 272 79 206 116 17 80 68 149 355 310 20 -4 42 66 126 224 243 289 321 339 394 333 319 342 342
55 45 84 111 134 179 236 233 227 263 270 329 392 419 476 508 454 368 216 123 171 146 130 204 235 161 290 243 156 150 139 182 255 271 272 287 321 339 344 363 329 368 350
41 53 81 112 114 141 178 189 161 181 225 224 278 362 429 424 397 308 248 206 186 213 197 219 228 255 237 220 234 218 230 252 266 260 287 306 344 350 346 361 356 347 317
47 64 68 107 127 142 182 194 154 187 226 211 229 233 272 344 315 260 234 219 229 196 210 252 301 351 321 291 266 273 299 307 308 328 377 427 453 452 457 424 387 308 280
74 61 87 113 142 147 198 209 187 245 241 217 214 246 273 307 287 252 240 236 276 306 289 301 332 303 283 246 261 291 326 335 344 390 426 471 441 440 413 397 345 330 311
116 102 103 91 94 137 255 273 239 240 251 238 280 306 293 307 306 320 322 372 375 339 323 308 346 316 274 288 330 377 380 415 422 421 440 447 428 400 365 362 339 266 225
132 108 109 104 117 198 264 325 304 295 304 317 295 272 298 395 399 339 339 352 332 346 347 346 344 337 343 345 378 440 480 518 523 518 496 471 462 407 339 317 280 305 276
77 98 96 135 147 193 253 318 312 322 335 333 306 314 325 313 314 312 336 366 401 427 442 495 463 429 402 375 399 428 455 492 507 527 502 463 421 381 319 280 295 307 265
51 105 112 103 133 203 254 317 362 348 387 352 345 331 285 274 278 310 316 379 467 524 526 526 495 473 442 436 410 393 392 401 439 455 444 414 349 307 304 277 258 253 210
101 46 77 158 208 230 310 353 393 362 350 351 354 342 330 306 335 411 439 447 453 462 439 446 479 497 498 497 485 462 458 425 427 410 377 350 332 307 271 255 255 301 257
107 104 192 216 288 305 310 386 322 313 319 367 347 346 361 382 394 420 413 410 378 366 357 375 411 441 448 477 515 506 465 424 410 362 334 309 277 260 286 344 378 297 265
113 132 224 248 242 206 221 221 225 262 327 370 385 380 429 470 472 428 345 310 306 312 318 341 371 391 418 439 442 435 410 391 378 348 329 327 363 418 396 334 267 244 248
132 123 169 219 232 243 261 238 225 278 349 367 352 390 417 435 468 472 375 323 306 253 266 307 336 372 410 407 380 389 400 363 329 340 360 397 336 276 273 260 253 261 262
111 199 277 289 304 320 326 304 289 287 314 325 316 326 362 382 382 409 475 485 378 361 393 427 425 455 432 403 398 408 365 307 285 323 331 308 283 270 253 258 249 231 213
Wind_Speed
21 24 26 30 32 33 35 23 12 18 24 26 17 19 23 28 25 35 31 25 27 22 19 21 15 16 21 29 40 35 38 40 32 33 41 42 39 34 29 26 28 30 27
18 22 24 25 30 32 35 38 40 17 17 25 27 26 26 28 27 43 38 33 29 33 34 40 37 58 62 62 43 37 40 41 29 36 41 48 51 45 34 30 28 25 23
15 21 25 25 26 30 34 37 41 44 54 68 53 30 32 55 47 77 75 80 64 52 59 68 64 70 59 63 42 28 26 29 27 33 38 44 48 45 40 29 27 27 27
14 19 26 27 29 34 32 37 41 44 50 51 54 42 56 66 73 79 73 75 77 82 79 73 62 65 56 36 37 33 27 31 28 37 37 45 44 47 51 40 35 28 27
22 25 32 30 29 32 34 34 40 45 48 50 53 55 54 62 69 74 75 77 84 84 80 33 59 52 34 34 36 36 31 36 40 38 46 46 50 48 47 54 45 38 32
26 24 23 24 22 23 28 32 37 39 44 45 46 50 51 52 63 68 69 75 77 79 66 78 75 57 50 44 47 47 43 39 42 46 45 44 49 47 45 48 47 48 47
29 20 21 27 22 27 32 33 38 43 44 46 48 49 47 49 55 54 54 55 55 61 29 48 54 59 64 62 52 48 51 48 50 50 53 51 48 50 47 45 51 53 45
25 34 27 29 26 29 33 35 35 36 38 43 46 43 42 37 46 38 36 35 36 27 37 39 45 54 59 53 42 45 50 59 59 70 60 46 48 45 44 48 48 58 50
12 33 16 22 24 27 29 30 31 34 37 34 34 37 35 38 30 26 24 25 26 28 33 39 61 62 48 44 42 43 45 63 65 61 51 43 47 44 45 46 45 46 60
5 16 17 14 21 25 24 24 31 37 32 34 36 33 31 25 24 21 26 29 31 35 40 44 46 50 49 49 47 45 49 51 59 53 51 49 40 38 34 40 42 50 51
11 9 19 23 21 13 18 26 29 27 28 31 31 29 26 27 25 29 31 44 37 42 42 49 48 49 53 54 59 56 45 43 55 50 51 35 36 40 39 43 43 46 45
11 9 9 10 13 15 15 21 21 28 32 27 26 29 29 29 28 30 32 34 28 32 45 44 45 43 46 45 45 53 37 45 46 45 36 40 39 38 37 38 38 39 43
46 39 27 14 19 15 17 18 21 29 28 29 29 30 32 33 34 35 37 32 24 25 18 25 28 29 25 21 15 21 30 38 36 38 39 38 36 36 36 35 37 39 43
43 27 16 13 17 16 16 15 14 17 20 22 25 29 33 37 38 37 37 39 34 31 31 28 30 31 24 22 21 24 32 36 37 38 35 33 32 33 32 35 38 40 44
42 22 19 16 16 15 13 15 15 13 16 17 18 23 24 29 31 35 35 35 35 35 32 30 29 28 27 27 27 29 30 33 33 34 33 32 32 31 32 35 37 40 45
44 42 28 25 20 19 17 17 19 16 18 20 22 24 27 29 29 29 28 29 31 33 30 28 27 27 30 28 29 30 34 30 31 33 34 33 33 33 32 34 36 39 49
39 41 35 23 22 21 18 20 22 26 22 24 22 20 24 29 29 28 29 28 29 30 31 30 30 33 33 29 27 25 26 28 31 32 32 32 30 30 32 34 38 46 49
56 40 38 41 29 27 25 21 25 24 20 20 19 21 22 26 27 26 28 29 29 29 30 34 35 33 32 24 22 24 28 32 33 30 28 28 31 33 34 39 47 51 56
65 58 41 31 32 27 28 25 26 27 26 21 20 23 24 26 24 24 27 30 30 31 33 29 29 29 28 24 22 25 28 29 30 30 30 31 33 36 39 46 56 60 57
62 64 59 46 37 30 25 23 24 28 29 26 23 24 26 24 23 24 24 26 25 24 23 25 28 25 23 20 22 23 24 26 28 31 32 35 38 42 47 56 57 63 60
79 60 52 44 38 28 23 25 24 28 27 25 25 28 30 29 27 25 23 18 14 14 18 21 26 26 25 24 23 22 25 25 28 33 37 41 44 48 53 52 56 60 58
71 62 56 49 41 30 26 25 21 18 21 24 26 29 31 33 29 23 20 17 16 17 20 21 23 26 28 28 29 28 29 31 34 39 42 45 48 51 51 54 57 59 62
50 48 48 45 41 31 24 19 18 15 16 22 27 31 30 29 27 22 20 19 21 22 22 21 23 26 29 31 32 33 35 36 39 41 43 46 49 50 54 58 61 63 69
39 30 26 26 25 19 15 14 14 14 19 24 26 27 28 27 26 25 26 24 23 24 25 26 28 29 32 35 36 38 39 41 44 46 50 51 52 55 59 64 65 66 68
31 25 22 21 23 21 17 17 17 17 18 20 25 26 26 26 26 29 30 29 30 26 26 28 30 35 39 40 38 42 45 47 48 49 53 58 61 66 66 65 66 66 68
30 25 26 21 24 26 23 21 20 15 13 17 21 24 23 22 23 24 29 34 32 31 30 30 31 35 34 36 40 43 45 46 47 57 61 64 66 68 68 69 70 71 73
Wind_Direction
120 104 99 106 108 114 123 121 223 229 219 227 222 200 197 220 211 228 236 224 228 231 240 258 264 260 263 272 260 267 265 266 275 285 289 295 303 309 314 321 324 324 323
115 120 112 107 117 118 127 135 147 149 205 225 237 238 218 232 221 237 244 235 234 247 260 256 254 238 222 237 267 269 271 274 279 288 296 299 303 305 305 311 314 318 326
133 133 135 127 121 124 128 133 141 151 163 173 188 240 234 234 235 218 222 212 236 244 242 230 236 228 249 251 274 276 276 283 284 288 297 305 309 323 322 308 310 312 315
144 144 147 142 142 140 127 132 136 144 154 157 163 159 168 175 180 193 187 191 197 209 221 231 252 252 263 276 280 279 277 283 281 289 288 300 309 316 321 326 325 314 312
168 163 162 153 143 141 141 136 141 147 150 154 161 165 167 175 183 193 196 201 219 223 238 261 263 269 276 277 280 283 278 278 282 282 291 293 298 306 311 315 321 326 319
174 167 158 148 142 138 143 145 149 150 154 156 160 168 172 174 184 192 197 204 208 211 201 214 254 271 277 279 281 283 283 276 277 282 284 289 295 298 304 310 313 318 318
178 172 163 160 155 155 156 156 159 165 163 165 169 171 172 177 185 188 191 196 199 202 234 264 267 269 275 281 283 284 284 282 280 280 283 286 289 295 300 305 311 313 317
179 182 175 170 164 162 163 167 168 169 170 173 176 176 178 181 189 190 193 198 204 234 263 265 267 272 280 286 283 283 285 286 285 283 284 282 288 289 293 300 307 313 312
194 181 194 181 180 176 174 174 176 177 179 182 183 185 187 192 198 207 212 222 247 257 260 267 270 275 281 281 281 281 283 288 283 289 284 284 290 290 294 299 301 308 310
185 181 196 206 189 187 189 188 184 187 188 190 192 195 198 208 218 241 246 232 250 260 268 270 272 277 279 279 277 274 285 286 277 279 284 290 290 292 292 295 298 307 308
278 203 183 184 190 212 201 193 195 198 199 199 204 212 229 224 235 243 248 272 253 248 254 268 272 276 281 280 285 280 290 278 281 283 289 286 290 291 296 300 301 310 308
279 243 223 223 201 206 222 207 214 212 212 221 224 223 232 241 244 237 232 225 245 278 258 262 260 250 281 288 272 280 284 289 291 291 289 291 296 295 296 299 304 309 311
286 283 283 248 201 224 225 242 236 228 251 250 248 240 235 237 240 241 233 248 249 226 232 251 240 261 255 265 233 270 284 290 291 292 292 294 294 295 300 302 305 310 314
305 282 276 247 264 252 231 244 236 229 244 245 240 239 241 239 238 241 241 243 257 245 239 252 259 261 257 253 259 275 292 297 293 294 294 293 292 296 299 305 309 313 316
290 288 280 267 246 244 246 253 238 236 249 240 240 233 250 256 252 247 248 251 251 251 254 262 270 268 262 266 274 280 287 293 296 298 299 299 301 303 306 308 311 315 318
293 285 285 284 259 245 236 256 251 237 258 257 259 278 283 281 265 260 260 256 250 252 259 264 266 261 271 268 273 282 290 289 293 299 303 305 307 311 315 318 321 322 319
288 287 287 271 251 238 259 252 245 272 259 264 268 271 286 289 281 272 271 262 256 267 267 274 276 280 284 279 278 286 291 294 298 299 300 305 309 313 317 322 325 326 326
294 283 278 278 268 262 265 271 270 261 257 261 272 287 294 296 293 282 276 277 276 272 276 285 287 290 293 287 289 298 303 306 307 305 304 304 309 312 315 319 321 323 323
293 292 289 275 270 262 264 271 273 274 275 269 277 292 302 307 302 293 288 288 285 286 289 289 291 293 295 292 294 302 308 309 311 312 311 310 312 316 316 317 318 320 323
295 293 296 296 286 269 262 260 270 273 276 281 291 301 308 311 308 305 300 300 297 295 296 301 303 304 301 300 303 305 305 306 309 314 315 315 315 316 316 317 318 317 320
283 295 292 292 293 285 270 265 272 273 280 287 298 306 312 315 317 317 313 307 305 305 307 310 315 316 315 316 314 311 308 306 308 311 312 316 317 318 320 321 320 319 322
279 287 291 291 290 286 281 277 270 282 288 292 299 307 312 314 317 317 318 313 308 307 307 308 313 319 321 321 320 318 318 316 312 311 313 316 318 319 320 321 322 322 323
290 291 286 292 295 297 287 275 284 291 299 304 307 311 316 318 318 314 310 310 309 305 304 304 305 309 315 318 321 320 319 318 317 317 317 318 318 319 321 321 322 322 321
307 310 306 301 305 309 306 299 302 305 308 308 312 316 318 321 323 321 316 311 306 303 302 302 303 306 310 312 314 315 317 318 318 318 317 318 319 320 319 318 320 321 322
319 318 314 312 310 316 314 312 310 309 315 317 315 318 323 322 324 325 319 315 315 309 303 303 304 303 305 310 314 314 314 315 316 317 317 316 316 316 316 318 319 321 322
317 317 314 314 309 311 317 323 322 322 325 329 326 323 326 330 328 326 329 335 329 324 322 320 315 318 319 319 319 319 319 318 317 315 313 314 315 315 316 316 318 319 320